#timestamp,LO_Frequency,Hit,StdDev 
1681819215.7,286046998.3,N
1681819235.6,286046998.8,N
1681819255.4,286046999.1,N
1681819275.2,286046998.5,N
1681819295.1,286047000.9,N
1681819296.0,286047000.9,N
1681819315.8,286047000.0,N
1681819335.7,286047002.3,N
1681819355.5,286046999.7,N
1681819375.3,286046999.7,N
1681819395.2,286047002.4,N
1681819415.0,286047002.5,N
1681819415.9,286047002.5,N
1681819435.7,286046999.8,N
1681819455.6,286047002.7,N
1681819475.4,286047000.5,N
1681819495.3,286047001.2,N
1681819515.1,286046998.7,N
1681819516.0,286046998.7,N
1681819535.8,286046998.6,N
1681819555.7,286047001.1,N
1681819575.5,286046999.8,N
1681819595.3,286047002.6,N
1681819645.2,286046998.6,E
1681819655.1,286047001.0,N
1681819675.9,286047000.1,P
1681819695.7,286047001.8,P
1681819715.5,286047002.1,N
1681819735.4,286047002.0,N
1681819755.2,286047002.0,N
1681819775.1,286047001.6,N
1681819776.0,286047001.6,N
1681819795.8,286047004.3,Y
1681819815.6,286047002.8,P
1681819835.5,286047002.3,P
1681819855.3,286047002.7,P
1681819875.2,286046999.7,N
1681819895.9,286046999.8,N
1681819915.7,286047002.8,N
1681819935.6,286047002.6,N
1681819955.4,286047002.2,N
1681819975.2,286047002.3,N
1681819995.1,286047002.6,N
1681819996.0,286047002.6,N
1681820015.8,286047002.1,N
1681820035.7,286046999.8,N
1681820055.5,286047000.2,N
1681820075.4,286047001.1,N
1681820095.2,286046999.9,N
1681820115.0,286047002.7,N
1681820115.9,286047002.7,N
1681820135.8,286047001.0,N
1681820155.6,286047002.4,N
1681820175.4,286047002.2,N
1681820195.3,286047002.7,N
1681820215.1,286046999.7,N
1681820235.9,286047002.4,N
1681820255.7,286047000.3,N
1681820275.5,286047000.3,N
1681820295.4,286047000.3,N
1681820315.2,286046998.5,N
1681820335.0,286047000.8,N
1681820335.9,286047000.8,N
1681820355.8,286046998.1,N
1681820375.6,286047000.7,N
1681820395.5,286047000.8,N
1681820415.3,286046998.2,N
1681820435.1,286047000.4,N
1681820455.9,286047002.3,N
1681820475.7,286047000.9,N
1681820495.5,286046999.8,N
1681820515.4,286047002.0,N
1681820535.2,286047001.7,N
1681820555.1,286047001.8,N
1681820556.0,286047001.8,N
1681820575.8,286047001.8,N
1681820595.6,286047002.7,N
1681820615.5,286046999.9,N
1681820635.3,286046998.5,N
1681820655.1,286047000.7,N
1681820675.9,286046999.8,N
1681820695.7,286047000.1,N
1681820715.6,286047002.7,N
1681820735.4,286047004.4,Y
1681820755.2,286046999.8,P
1681820775.1,286047002.8,P
1681820776.0,286047002.8,N
1681820795.8,286047000.1,N
1681820815.6,286047000.4,N
1681820835.5,286047002.6,N
1681820855.3,286047001.6,N
1681820875.2,286046999.7,N
1681820895.9,286047000.4,N
1681820915.7,286047000.0,N
1681820935.6,286047000.7,N
1681820955.4,286047000.7,N
1681820975.2,286047001.6,N
1681820995.1,286047002.2,N
1681820996.0,286047002.2,N
1681821015.8,286047002.6,N
1681821035.7,286047001.9,N
1681821055.5,286047000.5,N
1681821075.3,286046999.9,N
1681821095.2,286047000.1,N
1681821115.0,286047000.3,N
1681821115.9,286047000.3,N
1681821135.7,286046998.7,N
1681821155.6,286046998.8,N
1681821175.4,286046998.4,N
1681821195.3,286046998.4,N
1681821215.1,286046998.4,N
1681821216.0,286046998.4,N
1681821235.8,286046998.9,N
1681821255.7,286047001.0,N
1681821275.5,286047001.2,N
1681821295.4,286046999.9,N
1681821315.2,286047002.3,N
1681821335.0,286047000.3,N
1681821335.9,286047000.3,N
1681821355.8,286047000.8,N
1681821375.6,286047000.1,N
1681821395.5,286047000.6,N
1681821415.3,286046999.4,N
1681821435.1,286046998.9,N
1681821455.9,286046998.6,N
1681821475.7,286046998.6,N
1681821495.5,286046998.5,N
1681821515.4,286046998.6,N
1681821535.2,286047000.9,N
1681821555.1,286047000.4,N
1681821556.0,286047000.4,N
1681821575.8,286046998.4,N
1681821595.6,286047001.2,N
1681821615.5,286047000.9,N
1681821635.3,286046998.4,N
1681821655.2,286046998.2,N
1681821675.9,286047000.6,N
1681821695.7,286047000.8,N
1681821715.6,286046998.8,N
1681821735.4,286046996.5,Y
1681821755.3,286046996.6,P
1681821775.1,286046997.0,N
1681821776.0,286046997.0,N
1681821795.8,286046999.5,N
1681821815.7,286046999.0,N
1681821835.5,286046997.3,N
1681821855.3,286046995.1,Y
1681821875.2,286046997.0,P
1681821895.0,286046997.4,P
1681821895.9,286046997.4,P
1681821915.8,286046996.5,Y
1681821935.6,286047000.9,P
1681821955.4,286046998.2,N
1681821975.3,286047001.1,N
1681821995.1,286046999.3,N
1681822015.9,286046999.5,N
1681822035.7,286046999.4,N
1681822055.5,286046996.5,N
1681822075.4,286046999.2,N
1681822095.2,286046997.0,N
1681822115.0,286046997.2,N
1681822115.9,286046997.2,N
1681822135.8,286046996.8,N
1681822155.6,286046996.9,N
1681822175.5,286046996.7,N
1681822195.3,286046997.7,N
1681822215.1,286046997.9,N
1681822235.9,286046995.4,Y
1681822255.7,286046996.7,P
1681822275.5,286046996.5,P
1681822295.4,286046999.0,N
1681822315.2,286046999.6,N
1681822335.1,286046999.1,N
1681822336.0,286046999.1,N
1681822355.8,286046997.2,N
1681822375.6,286046997.2,N
1681822395.5,286046997.5,N
1681822415.3,286046997.7,N
1681822435.2,286046997.7,N
1681822455.9,286046995.4,Y
1681822475.7,286046999.5,P
1681822495.6,286046998.7,N
1681822515.4,286046998.4,N
1681822535.3,286046998.7,N
1681822555.1,286046999.3,N
1681822556.0,286046999.3,N
1681822575.8,286046997.7,Y
1681822595.7,286046997.0,P
1681822615.5,286046997.5,N
1681822635.3,286046996.8,P
1681822655.2,286046996.9,Y
1681822675.0,286047001.0,P
1681822675.9,286047001.0,N
1681822695.8,286046999.7,N
1681822715.6,286047001.0,N
1681822735.4,286047001.2,N
1681822755.3,286047000.5,N
1681822775.1,286047000.5,N
1681822795.9,286047000.2,N
